Location: Grieser Field
(39.7333°N, 81.7975°W)
Time: 19:04:56
(UTC-05:00)

Meteor 2-1 Rocket - Visible Passes

Search period start: 22 December 2014 00:00
Search period end: 01 January 2015 00:00
Orbit: 829 x 909 km, 81.3° (Epoch: 22 December)

Date Brightness Start Highest point End Pass type
(mag) Time Alt. Az. Time Alt. Az. Time Alt. Az.
22 Dec 5.5 18:53:08 10° N 18:55:56 24° NNE 18:55:56 24° NNE visible
22 Dec 6.4 20:36:31 10° NNW 20:38:28 19° NW 20:38:28 19° NW visible
23 Dec 4.8 18:46:32 10° N 18:51:56 35° ENE 18:57:15 10° SE visible
23 Dec 5.9 20:29:58 10° NNW 20:35:06 31° W 20:40:12 10° SSW visible
24 Dec 4.8 18:39:57 10° N 18:45:22 36° ENE 18:50:43 10° SE visible
24 Dec 5.9 20:23:25 10° NNW 20:28:31 31° W 20:33:34 10° SSW visible
25 Dec 4.8 18:33:21 10° N 18:38:48 36° ENE 18:44:10 10° SE visible
25 Dec 6.0 20:16:53 10° NNW 20:21:56 30° W 20:26:56 10° SSW visible
26 Dec 4.8 18:26:45 10° N 18:32:14 37° ENE 18:37:37 10° SE visible
26 Dec 6.1 20:10:20 10° NNW 20:15:21 29° W 20:20:18 10° SSW visible
27 Dec 4.8 18:20:10 10° N 18:25:39 38° ENE 18:31:04 10° SE visible
27 Dec 6.1 20:03:47 10° NNW 20:08:45 29° W 20:13:40 10° SW visible
28 Dec 4.7 18:13:34 10° N 18:19:05 39° ENE 18:24:31 10° SE visible
28 Dec 6.2 19:57:15 10° NNW 20:02:10 28° W 20:07:02 10° SW visible
29 Dec 4.7 18:06:58 10° N 18:12:31 40° ENE 18:17:58 10° SE visible
29 Dec 6.3 19:50:42 10° NNW 19:55:34 27° W 20:00:23 10° SW visible
30 Dec 4.7 18:00:23 10° N 18:05:57 41° ENE 18:11:25 10° SE visible
30 Dec 6.3 19:44:10 10° NNW 19:48:59 27° W 19:53:44 10° SW visible
31 Dec 5.2 07:11:12 10° S 07:16:47 55° E 07:22:30 10° NNE visible
31 Dec 4.7 17:53:47 10° N 17:59:23 41° ENE 18:04:51 10° SE visible
31 Dec 6.4 19:37:37 10° NW 19:42:23 26° W 19:47:06 10° SW visible
